Location: Carbonear
(47.7333°N, 53.2500°W)
Time: 23:13:55
(UTC+00:00)

STRAND 1 - Pass Details

Date: 01 December 2022
Orbit: 768 x 779 km, 98.4° (Epoch: 01 February)

Event Time Altitude Azimuth Distance (km) Brightness Sun altitude
Rises 07:58:33 0° 119° (ESE) 3,249 ? -29.8°
Reaches altitude 10° 08:01:28 10° 102° (ESE) 2,324 ? -29.3°
Maximum altitude 08:04:58 19° 58° (ENE) 1,781 ? -28.7°
Drops below altitude 10° 08:08:29 10° 15° (NNE) 2,328 ? -28.2°
Sets 08:11:24 0° 358° (N) 3,258 ? -27.7°
Enters shadow 08:11:37 -1° 357° (N) 3,337 ? -27.6°
